| time (UTC) | temp F | wind direction | speed knots | gust knots | rain 1hr in | rain 24hr in | rain mn in | humidity % | barometer mb |
| 20260906214515 | 88 | 130 | 0.9 | 6.1 | 0.00 | 0.00 | 0.00 | 34 | 999.6 |
| 20260906213012 | 87 | 232 | 0.9 | 5.2 | 0.00 | 0.00 | 0.00 | 34 | 999.8 |
| 20260906211511 | 88 | 214 | 0.9 | 3.5 | 0.00 | 0.00 | 0.00 | 34 | 1000.0 |
| 20260906210008 | 87 | 155 | 3.5 | 7.8 | 0.00 | 0.00 | 0.00 | 35 | 1000.0 |
| 20260906204508 | 88 | 194 | 0.9 | 4.3 | 0.00 | 0.00 | 0.00 | 35 | 1000.3 |
| 20260906203005 | 87 | 189 | 1.7 | 5.2 | 0.00 | 0.00 | 0.00 | 37 | 1000.6 |
| 20260906201504 | 88 | 130 | 1.7 | 4.3 | 0.00 | 0.00 | 0.00 | 35 | 1000.6 |
| 20260906200010 | 88 | 153 | 0.0 | 4.3 | 0.00 | 0.00 | 0.00 | 35 | 1000.7 |
| 20260906194502 | 88 | 213 | 1.7 | 8.7 | 0.00 | 0.00 | 0.00 | 34 | 1000.8 |
| 20260906193001 | 88 | 207 | 0.9 | 6.1 | 0.00 | 0.00 | 0.00 | 34 | 1001.1 |
| 20260906191602 | 87 | 159 | 0.9 | 3.5 | 0.00 | 0.00 | 0.00 | 34 | 1001.3 |
| 20260906190055 | 87 | 240 | 0.9 | 4.3 | 0.00 | 0.00 | 0.00 | 35 | 1001.4 |
| 20260906184606 | 86 | 133 | 0.9 | 5.2 | 0.00 | 0.00 | 0.00 | 37 | 1001.7 |
| 20260906183100 | 85 | 212 | 0.9 | 4.3 | 0.00 | 0.00 | 0.00 | 37 | 1002.2 |
| 20260906181547 | 85 | 211 | 0.0 | 6.1 | 0.00 | 0.00 | 0.00 | 38 | 1002.6 |
| 20260906180044 | 84 | 153 | 0.9 | 6.1 | 0.00 | 0.00 | 0.00 | 38 | 1002.9 |
| 20260906174542 | 83 | 194 | 0.0 | 5.2 | 0.00 | 0.00 | 0.00 | 39 | 1003.1 |
| 20260906173039 | 82 | 149 | 1.7 | 6.1 | 0.00 | 0.00 | 0.00 | 37 | 1003.3 |
| 20260906171537 | 82 | 139 | 1.7 | 6.1 | 0.00 | 0.00 | 0.00 | 38 | 1003.5 |
| 20260906170044 | 81 | 156 | 0.0 | 2.6 | 0.00 | 0.00 | 0.00 | 37 | 1003.7 |
| 20260906164541 | 80 | 339 | 0.0 | 3.5 | 0.00 | 0.00 | 0.00 | 39 | 1003.7 |
| 20260906163037 | 78 | 139 | 0.9 | 5.2 | 0.00 | 0.00 | 0.00 | 40 | 1003.9 |
| 20260906161525 | 77 | 138 | 0.0 | 2.6 | 0.00 | 0.00 | 0.00 | 42 | 1003.9 |
| 20260906160033 | 76 | 280 | 0.0 | 1.7 | 0.00 | 0.00 | 0.00 | 44 | 1003.9 |
| 20260906154520 | 75 | 326 | 0.0 | 1.7 | 0.00 | 0.00 | 0.00 | 45 | 1003.9 |
| 20260906153014 | 73 | 247 | 0.0 | 0.9 | 0.00 | 0.00 | 0.00 | 48 | 1003.9 |
| 20260906151509 | 72 | 253 | 0.0 | 0.9 | 0.00 | 0.00 | 0.00 | 52 | 1004.1 |
| 20260906150019 | 70 | 257 | 0.0 | 0.9 | 0.00 | 0.00 | 0.00 | 54 | 1004.0 |
| 20260906144503 | 69 | 255 | 0.0 | 1.7 | 0.00 | 0.00 | 0.00 | 56 | 1004.1 |
| 20260906143102 | 67 | 244 | 0.0 | 0.9 | 0.00 | 0.00 | 0.00 | 59 | 1004.0 |
| 20260906141613 | 66 | 252 | 0.0 | 0.9 | 0.00 | 0.00 | 0.00 | 59 | 1004.0 |
| 20260906140107 | 66 | 242 | 0.0 | 0.9 | 0.00 | 0.00 | 0.00 | 58 | 1004.1 |
| 20260906134600 | 66 | 242 | 0.0 | 0.9 | 0.00 | 0.00 | 0.00 | 56 | 1003.9 |
| 20260906133054 | 66 | 223 | 0.0 | 0.9 | 0.00 | 0.00 | 0.00 | 57 | 1003.9 |
| 20260906131551 | 64 | 222 | 0.0 | 1.7 | 0.00 | 0.00 | 0.00 | 58 | 1003.7 |
| 20260906130052 | 62 | 254 | 0.0 | 1.7 | 0.00 | 0.00 | 0.00 | 61 | 1003.7 |
| 20260906124551 | 61 | 255 | 0.0 | 0.0 | 0.00 | 0.00 | 0.00 | 63 | 1003.7 |
| 20260906123050 | 60 | 243 | 0.0 | 0.0 | 0.00 | 0.00 | 0.00 | 66 | 1003.7 |
| 20260906121549 | 62 | 243 | 0.0 | 0.0 | 0.00 | 0.00 | 0.00 | 62 | 1003.6 |
| 20260906120050 | 62 | 243 | 0.0 | 0.0 | 0.00 | 0.00 | 0.00 | 61 | 1003.4 |
| 20260906114550 | 62 | 243 | 0.0 | 0.0 | 0.00 | 0.00 | 0.00 | 61 | 1003.3 |
| 20260906113046 | 61 | 236 | 0.0 | 0.0 | 0.00 | 0.00 | 0.00 | 63 | 1003.3 |
| 20260906111548 | 60 | 228 | 0.0 | 0.0 | 0.00 | 0.00 | 0.00 | 66 | 1003.2 |
| 20260906110045 | 58 | 205 | 0.0 | 0.0 | 0.00 | 0.00 | 0.00 | 70 | 1003.1 |
| 20260906104545 | 59 | 204 | 0.0 | 0.0 | 0.00 | 0.00 | 0.00 | 70 | 1003.2 |
| 20260906103039 | 59 | 207 | 0.0 | 0.0 | 0.00 | 0.00 | 0.00 | 71 | 1003.2 |
| 20260906101537 | 60 | 207 | 0.0 | 0.0 | 0.00 | 0.00 | 0.00 | 70 | 1003.3 |
| 20260906100034 | 61 | 207 | 0.0 | 0.0 | 0.00 | 0.00 | 0.00 | 69 | 1003.5 |
| 20260906094557 | 61 | 216 | 0.0 | 0.0 | 0.00 | 0.00 | 0.00 | 70 | 1003.6 |
| 20260906093037 | 61 | 216 | 0.0 | 0.0 | 0.00 | 0.00 | 0.00 | 72 | 1003.4 |
| 20260906091540 | 63 | 228 | 0.0 | 0.0 | 0.00 | 0.00 | 0.00 | 70 | 1003.3 |
| 20260906090032 | 63 | 227 | 0.0 | 0.0 | 0.00 | 0.00 | 0.00 | 69 | 1003.3 |
| 20260906084536 | 64 | 244 | 0.0 | 0.0 | 0.00 | 0.00 | 0.00 | 70 | 1003.2 |
| 20260906083035 | 64 | 249 | 0.0 | 0.0 | 0.00 | 0.00 | 0.00 | 70 | 1003.4 |
| 20260906081543 | 63 | 240 | 0.0 | 0.0 | 0.00 | 0.00 | 0.00 | 73 | 1003.4 |
| 20260906080029 | 63 | 255 | 0.0 | 0.0 | 0.00 | 0.00 | 0.00 | 74 | 1003.4 |
| 20260906074532 | 62 | 233 | 0.0 | 0.0 | 0.00 | 0.00 | 0.00 | 75 | 1003.6 |
| 20260906073028 | 63 | 233 | 0.0 | 0.0 | 0.00 | 0.00 | 0.00 | 74 | 1003.6 |
| 20260906071527 | 63 | 233 | 0.0 | 0.0 | 0.00 | 0.00 | 0.00 | 73 | 1003.6 |
| 20260906070027 | 64 | 233 | 0.0 | 0.0 | 0.00 | 0.00 | 0.00 | 71 | 1003.8 |
| 20260906064525 | 64 | 234 | 0.0 | 0.9 | 0.00 | 0.00 | 0.00 | 72 | 1003.9 |
| 20260906063028 | 63 | 238 | 0.0 | 0.9 | 0.00 | 0.00 | 0.00 | 76 | 1003.8 |
| 20260906061531 | 61 | 190 | 0.0 | 0.0 | 0.00 | 0.00 | 0.00 | 77 | 1003.7 |
| 20260906060015 | 61 | 190 | 0.0 | 0.0 | 0.00 | 0.00 | 0.00 | 76 | 1003.4 |
| 20260906054516 | 62 | 190 | 0.0 | 0.0 | 0.00 | 0.00 | 0.00 | 74 | 1003.1 |
| 20260906053017 | 63 | 190 | 0.0 | 0.0 | 0.00 | 0.00 | 0.00 | 73 | 1003.0 |
| 20260906051514 | 64 | 190 | 0.0 | 0.0 | 0.00 | 0.00 | 0.00 | 72 | 1002.9 |
| 20260906050015 | 65 | 190 | 0.0 | 0.0 | 0.00 | 0.00 | 0.00 | 71 | 1002.9 |
| 20260906044513 | 66 | 190 | 0.0 | 0.0 | 0.00 | 0.00 | 0.00 | 70 | 1003.0 |
| 20260906043013 | 66 | 188 | 0.0 | 0.0 | 0.00 | 0.00 | 0.00 | 69 | 1003.0 |
| 20260906041512 | 67 | 198 | 0.0 | 0.0 | 0.00 | 0.00 | 0.00 | 68 | 1003.0 |
| 20260906040011 | 67 | 188 | 0.0 | 0.0 | 0.00 | 0.00 | 0.00 | 67 | 1003.0 |
| 20260906034512 | 68 | 188 | 0.0 | 0.0 | 0.00 | 0.00 | 0.00 | 65 | 1003.2 |
| 20260906033011 | 70 | 188 | 0.0 | 0.0 | 0.00 | 0.00 | 0.00 | 64 | 1003.2 |
| 20260906031509 | 71 | 188 | 0.0 | 0.0 | 0.00 | 0.00 | 0.00 | 63 | 1003.1 |
| 20260906030007 | 71 | 201 | 0.0 | 0.0 | 0.00 | 0.00 | 0.00 | 62 | 1002.8 |
| 20260906024507 | 72 | 206 | 0.0 | 1.7 | 0.00 | 0.00 | 0.00 | 61 | 1002.6 |
| 20260906023008 | 71 | 186 | 0.0 | 3.5 | 0.00 | 0.00 | 0.00 | 60 | 1002.5 |
| 20260906021507 | 70 | 200 | 0.0 | 1.7 | 0.00 | 0.00 | 0.00 | 44 | 1002.2 |
| 20260906020004 | 71 | 221 | 0.0 | 0.0 | 0.00 | 0.00 | 0.00 | 44 | 1001.5 |
| 20260906014505 | 73 | 221 | 0.0 | 0.9 | 0.00 | 0.00 | 0.00 | 42 | 1001.3 |
| 20260906013004 | 74 | 233 | 0.0 | 0.9 | 0.00 | 0.00 | 0.00 | 41 | 1001.2 |
| 20260906011508 | 75 | 233 | 0.0 | 0.0 | 0.00 | 0.00 | 0.00 | 40 | 1001.2 |
| 20260906010002 | 78 | 216 | 0.0 | 4.3 | 0.00 | 0.00 | 0.00 | 39 | 1001.3 |
| 20260906004502 | 81 | 273 | 0.9 | 2.6 | 0.00 | 0.00 | 0.00 | 35 | 1001.5 |
| 20260906003002 | 80 | 273 | 0.0 | 3.5 | 0.00 | 0.00 | 0.00 | 35 | 1001.6 |
| 20260906001612 | 79 | 244 | 0.9 | 2.6 | 0.00 | 0.00 | 0.00 | 34 | 1001.5 |
| 20260906000100 | 81 | 250 | 0.0 | 1.7 | 0.00 | 0.00 | 0.00 | 34 | 1001.4 |
| 20260905234601 | 83 | 215 | 0.0 | 1.7 | 0.00 | 0.00 | 0.00 | 33 | 1001.2 |
| 20260905233110 | 83 | 245 | 0.0 | 0.9 | 0.00 | 0.00 | 0.00 | 33 | 1001.2 |
| 20260905231559 | 84 | 234 | 0.0 | 1.7 | 0.00 | 0.00 | 0.00 | 32 | 1000.9 |
| 20260905230057 | 82 | 249 | 0.0 | 0.0 | 0.00 | 0.00 | 0.00 | 35 | 1000.9 |
| 20260905224605 | 81 | 232 | 0.0 | 0.9 | 0.00 | 0.00 | 0.00 | 35 | 1001.0 |
| 20260905223056 | 79 | 74 | 0.0 | 1.7 | 0.00 | 0.00 | 0.00 | 36 | 1001.1 |
| 20260905221553 | 78 | 260 | 0.0 | 1.7 | 0.00 | 0.00 | 0.00 | 36 | 1001.4 |
| 20260905220101 | 80 | 207 | 0.0 | 0.9 | 0.00 | 0.00 | 0.00 | 36 | 1001.6 |